Time,TemperatureF,DewpointF,PressureIn,WindDirection,WindDirectionDegrees,WindSpeedMPH,WindSpeedGustMPH,Humidity,HourlyPrecipIn,Conditions,Clouds,dailyrainin,SoftwareType,DateUTC
2013-11-17 00:01:00,23.0,23.0,29.86,WNW,292,0.0,0.0,100,0.00,,,-99.99,Weather View 32 v70,2013-11-17 05:01:00,
2013-11-17 00:04:00,24.0,24.0,29.86,WNW,292,0.0,0.0,100,0.00,,,-99.99,Weather View 32 v70,2013-11-17 05:04:00,
2013-11-17 00:09:00,24.0,24.0,29.86,WNW,292,0.0,0.0,100,0.00,,,-99.99,Weather View 32 v70,2013-11-17 05:09:00,
2013-11-17 00:14:00,23.0,23.0,29.86,WNW,292,0.0,0.0,100,0.00,,,-99.99,Weather View 32 v70,2013-11-17 05:14:00,
2013-11-17 00:19:00,23.0,23.0,29.86,WNW,292,0.0,0.0,100,0.00,,,-99.99,Weather View 32 v70,2013-11-17 05:19:00,
2013-11-17 00:24:00,23.0,23.0,29.86,WNW,292,0.0,0.0,100,0.00,,,-99.99,Weather View 32 v70,2013-11-17 05:24:00,
2013-11-17 00:29:00,23.0,23.0,29.86,WNW,292,0.0,0.0,100,0.00,,,-99.99,Weather View 32 v70,2013-11-17 05:29:00,
2013-11-17 00:34:00,23.0,23.0,29.86,WNW,292,0.0,0.0,100,0.00,,,-99.99,Weather View 32 v70,2013-11-17 05:34:00,
2013-11-17 00:44:00,23.0,23.0,29.87,WNW,292,0.0,0.0,100,0.00,,,-99.99,Weather View 32 v70,2013-11-17 05:44:00,
2013-11-17 00:49:00,23.0,23.0,29.87,WNW,292,0.0,0.0,100,0.00,,,-99.99,Weather View 32 v70,2013-11-17 05:49:00,
2013-11-17 00:54:00,23.0,23.0,29.87,WNW,292,0.0,0.0,100,0.00,,,-99.99,Weather View 32 v70,2013-11-17 05:54:00,
2013-11-17 00:59:00,24.0,24.0,29.87,WNW,292,0.0,0.0,100,0.00,,,-99.99,Weather View 32 v70,2013-11-17 05:59:00,
2013-11-17 01:04:00,24.0,24.0,29.87,WNW,292,0.0,0.0,100,0.00,,,-99.99,Weather View 32 v70,2013-11-17 06:04:00,
2013-11-17 01:09:00,24.0,24.0,29.87,WNW,292,0.0,0.0,100,0.00,,,-99.99,Weather View 32 v70,2013-11-17 06:09:00,
2013-11-17 01:19:00,23.0,23.0,29.87,WNW,292,0.0,0.0,100,0.00,,,-99.99,Weather View 32 v70,2013-11-17 06:19:00,
2013-11-17 01:24:00,23.0,23.0,29.87,WNW,292,0.0,0.0,100,0.00,,,-99.99,Weather View 32 v70,2013-11-17 06:24:00,
2013-11-17 01:29:00,23.0,23.0,29.87,WNW,292,0.0,0.0,100,0.00,,,-99.99,Weather View 32 v70,2013-11-17 06:29:00,
2013-11-17 01:39:00,23.0,23.0,29.87,WNW,292,0.0,0.0,100,0.00,,,-99.99,Weather View 32 v70,2013-11-17 06:39:00,
2013-11-17 01:44:00,23.0,23.0,29.87,WNW,292,0.0,0.0,100,0.00,,,-99.99,Weather View 32 v70,2013-11-17 06:44:00,
2013-11-17 01:49:00,22.0,22.0,29.87,WNW,292,0.0,0.0,100,0.00,,,-99.99,Weather View 32 v70,2013-11-17 06:49:00,
2013-11-17 01:54:00,23.0,23.0,29.87,WNW,292,0.0,0.0,100,0.00,,,-99.99,Weather View 32 v70,2013-11-17 06:54:00,
2013-11-17 01:59:00,23.0,23.0,29.87,WNW,292,0.0,0.0,100,0.00,,,-99.99,Weather View 32 v70,2013-11-17 06:59:00,
2013-11-17 02:04:00,23.0,23.0,29.87,WNW,292,0.0,0.0,100,0.00,,,-99.99,Weather View 32 v70,2013-11-17 07:04:00,
2013-11-17 02:14:00,23.0,23.0,29.87,WNW,292,0.0,0.0,100,0.00,,,-99.99,Weather View 32 v70,2013-11-17 07:14:00,
2013-11-17 02:19:00,22.0,22.0,29.87,WNW,292,0.0,0.0,100,0.00,,,-99.99,Weather View 32 v70,2013-11-17 07:19:00,
2013-11-17 02:24:00,22.0,22.0,29.87,WNW,292,0.0,0.0,100,0.00,,,-99.99,Weather View 32 v70,2013-11-17 07:24:00,
2013-11-17 02:29:00,22.0,22.0,29.87,WNW,292,0.0,0.0,100,0.00,,,-99.99,Weather View 32 v70,2013-11-17 07:29:00,
2013-11-17 02:39:00,22.0,22.0,29.87,WNW,292,0.0,0.0,100,0.00,,,-99.99,Weather View 32 v70,2013-11-17 07:39:00,
2013-11-17 02:44:00,22.0,22.0,29.87,WNW,292,0.0,0.0,100,0.00,,,-99.99,Weather View 32 v70,2013-11-17 07:44:00,
2013-11-17 02:49:00,22.0,22.0,29.87,WNW,292,0.0,0.0,100,0.00,,,-99.99,Weather View 32 v70,2013-11-17 07:49:00,
2013-11-17 02:54:00,22.0,22.0,29.87,WNW,292,0.0,0.0,100,0.00,,,-99.99,Weather View 32 v70,2013-11-17 07:54:00,
2013-11-17 02:59:00,22.0,22.0,29.87,WNW,292,0.0,0.0,100,0.00,,,-99.99,Weather View 32 v70,2013-11-17 07:59:00,
2013-11-17 03:09:00,21.0,21.0,29.86,WNW,292,0.0,0.0,100,0.00,,,-99.99,Weather View 32 v70,2013-11-17 08:09:00,
2013-11-17 03:14:00,21.0,21.0,29.87,WNW,292,0.0,0.0,100,0.00,,,-99.99,Weather View 32 v70,2013-11-17 08:14:00,
2013-11-17 03:19:00,21.0,21.0,29.87,WNW,292,0.0,0.0,100,0.00,,,-99.99,Weather View 32 v70,2013-11-17 08:19:00,
2013-11-17 03:24:00,21.0,21.0,29.87,WNW,292,0.0,0.0,100,0.00,,,-99.99,Weather View 32 v70,2013-11-17 08:24:00,
2013-11-17 03:29:00,21.0,21.0,29.87,WNW,292,0.0,0.0,100,0.00,,,-99.99,Weather View 32 v70,2013-11-17 08:29:00,
2013-11-17 03:39:00,21.0,21.0,29.86,WNW,292,0.0,0.0,100,0.00,,,-99.99,Weather View 32 v70,2013-11-17 08:39:00,
2013-11-17 03:44:00,21.0,21.0,29.86,WNW,292,0.0,0.0,100,0.00,,,-99.99,Weather View 32 v70,2013-11-17 08:44:00,
2013-11-17 03:49:00,21.0,21.0,29.87,WNW,292,0.0,0.0,100,0.00,,,-99.99,Weather View 32 v70,2013-11-17 08:49:00,
2013-11-17 03:54:00,21.0,21.0,29.87,WNW,292,0.0,0.0,100,0.00,,,-99.99,Weather View 32 v70,2013-11-17 08:54:00,
2013-11-17 04:03:00,21.0,21.0,29.87,WNW,292,0.0,0.0,100,0.00,,,-99.99,Weather View 32 v70,2013-11-17 09:03:00,
2013-11-17 04:09:00,21.0,21.0,29.85,WNW,292,0.0,0.0,100,0.00,,,-99.99,Weather View 32 v70,2013-11-17 09:09:00,
2013-11-17 04:14:00,21.0,21.0,29.85,WNW,292,0.0,0.0,100,0.00,,,-99.99,Weather View 32 v70,2013-11-17 09:14:00,
2013-11-17 04:19:00,21.0,21.0,29.86,WNW,292,0.0,0.0,100,0.00,,,-99.99,Weather View 32 v70,2013-11-17 09:19:00,
2013-11-17 04:24:00,21.0,21.0,29.84,WNW,292,0.0,0.0,100,0.00,,,-99.99,Weather View 32 v70,2013-11-17 09:24:00,
2013-11-17 04:29:00,21.0,21.0,29.86,WNW,292,0.0,0.0,100,0.00,,,-99.99,Weather View 32 v70,2013-11-17 09:29:00,
2013-11-17 04:39:00,21.0,21.0,29.86,WNW,292,0.0,0.0,100,0.00,,,-99.99,Weather View 32 v70,2013-11-17 09:39:00,
2013-11-17 04:44:00,20.0,20.0,29.86,WNW,292,0.0,0.0,100,0.00,,,-99.99,Weather View 32 v70,2013-11-17 09:44:00,
2013-11-17 04:49:00,20.0,20.0,29.86,WNW,292,0.0,0.0,100,0.00,,,-99.99,Weather View 32 v70,2013-11-17 09:49:00,
2013-11-17 04:59:00,21.0,21.0,29.85,ENE,67,0.0,0.0,100,0.00,,,-99.99,Weather View 32 v70,2013-11-17 09:59:00,
2013-11-17 05:04:00,21.0,21.0,29.85,ENE,67,0.0,0.0,100,0.00,,,-99.99,Weather View 32 v70,2013-11-17 10:04:00,
2013-11-17 05:09:00,21.0,21.0,29.85,ENE,67,0.0,0.0,100,0.00,,,-99.99,Weather View 32 v70,2013-11-17 10:09:00,
2013-11-17 05:14:00,21.0,21.0,29.86,ENE,67,0.0,0.0,100,0.00,,,-99.99,Weather View 32 v70,2013-11-17 10:14:00,
2013-11-17 05:19:00,21.0,21.0,29.86,ENE,67,0.0,0.0,100,0.00,,,-99.99,Weather View 32 v70,2013-11-17 10:19:00,
2013-11-17 05:24:00,21.0,21.0,29.86,ENE,67,0.0,0.0,100,0.00,,,-99.99,Weather View 32 v70,2013-11-17 10:24:00,
2013-11-17 05:34:00,20.0,20.0,29.86,ENE,67,0.0,0.0,100,0.00,,,-99.99,Weather View 32 v70,2013-11-17 10:34:00,
2013-11-17 05:39:00,20.0,20.0,29.86,ENE,67,0.0,0.0,100,0.00,,,-99.99,Weather View 32 v70,2013-11-17 10:39:00,
2013-11-17 05:44:00,20.0,20.0,29.86,ENE,67,0.0,0.0,100,0.00,,,-99.99,Weather View 32 v70,2013-11-17 10:44:00,
2013-11-17 05:49:00,20.0,20.0,29.87,ENE,67,0.0,0.0,100,0.00,,,-99.99,Weather View 32 v70,2013-11-17 10:49:00,
2013-11-17 05:54:00,20.0,20.0,29.87,ENE,67,0.0,0.0,100,0.00,,,-99.99,Weather View 32 v70,2013-11-17 10:54:00,
2013-11-17 06:05:00,20.0,20.0,29.87,ENE,67,0.0,0.0,100,0.00,,,-99.99,Weather View 32 v70,2013-11-17 11:05:00,
2013-11-17 06:14:00,21.0,21.0,29.87,East,90,0.0,0.0,100,0.00,,,-99.99,Weather View 32 v70,2013-11-17 11:14:00,
2013-11-17 06:19:00,21.0,21.0,29.87,East,90,0.0,0.0,100,0.00,,,-99.99,Weather View 32 v70,2013-11-17 11:19:00,
2013-11-17 06:29:00,21.0,21.0,29.87,East,90,0.0,0.0,100,0.00,,,-99.99,Weather View 32 v70,2013-11-17 11:29:00,
2013-11-17 06:34:00,21.0,21.0,29.88,SW,225,0.0,0.0,100,0.00,,,-99.99,Weather View 32 v70,2013-11-17 11:34:00,
2013-11-17 06:39:00,21.0,21.0,29.88,SW,225,0.0,0.0,100,0.00,,,-99.99,Weather View 32 v70,2013-11-17 11:39:00,
2013-11-17 06:44:00,20.0,20.0,29.89,West,270,0.0,0.0,100,0.00,,,-99.99,Weather View 32 v70,2013-11-17 11:44:00,
2013-11-17 06:54:00,21.0,21.0,29.89,NNW,337,0.0,0.0,100,0.00,,,-99.99,Weather View 32 v70,2013-11-17 11:54:00,
2013-11-17 06:59:00,21.0,21.0,29.88,NNW,337,0.0,0.0,100,0.00,,,-99.99,Weather View 32 v70,2013-11-17 11:59:00,
2013-11-17 07:04:00,21.0,21.0,29.88,NNW,337,0.0,0.0,100,0.00,,,-99.99,Weather View 32 v70,2013-11-17 12:04:00,
2013-11-17 07:09:00,21.0,21.0,29.89,NNW,337,0.0,0.0,100,0.00,,,-99.99,Weather View 32 v70,2013-11-17 12:09:00,
2013-11-17 07:19:00,22.0,22.0,29.88,NNW,337,0.0,0.0,100,0.00,,,-99.99,Weather View 32 v70,2013-11-17 12:19:00,
2013-11-17 07:24:00,22.0,22.0,29.88,NNW,337,0.0,0.0,100,0.00,,,-99.99,Weather View 32 v70,2013-11-17 12:24:00,
2013-11-17 07:29:00,23.0,23.0,29.88,NNW,337,0.0,0.0,100,0.00,,,-99.99,Weather View 32 v70,2013-11-17 12:29:00,
2013-11-17 07:34:00,23.0,23.0,29.88,ENE,67,0.0,0.0,100,0.00,,,-99.99,Weather View 32 v70,2013-11-17 12:34:00,
2013-11-17 07:39:00,24.0,24.0,29.87,East,90,0.0,0.0,100,0.00,,,-99.99,Weather View 32 v70,2013-11-17 12:39:00,
2013-11-17 07:49:00,24.0,24.0,29.88,ESE,112,0.0,0.0,100,0.00,,,-99.99,Weather View 32 v70,2013-11-17 12:49:00,
2013-11-17 07:54:00,25.0,25.0,29.88,SE,135,0.0,0.0,100,0.00,,,-99.99,Weather View 32 v70,2013-11-17 12:54:00,
2013-11-17 07:59:00,25.0,25.0,29.88,SE,135,0.0,0.0,100,0.00,,,-99.99,Weather View 32 v70,2013-11-17 12:59:00,
2013-11-17 08:06:00,25.0,25.0,29.88,South,180,0.0,0.0,100,0.00,,,-99.99,Weather View 32 v70,2013-11-17 13:06:00,
2013-11-17 08:14:00,26.0,26.0,29.88,SW,225,0.0,0.0,100,0.00,,,-99.99,Weather View 32 v70,2013-11-17 13:14:00,
2013-11-17 08:19:00,26.0,26.0,29.88,SW,225,0.0,0.0,100,0.00,,,-99.99,Weather View 32 v70,2013-11-17 13:19:00,
2013-11-17 08:24:00,26.0,26.0,29.87,SW,225,0.0,0.0,100,0.00,,,-99.99,Weather View 32 v70,2013-11-17 13:24:00,
2013-11-17 08:29:00,27.0,27.0,29.87,SW,225,0.0,0.0,100,0.00,,,-99.99,Weather View 32 v70,2013-11-17 13:29:00,
2013-11-17 08:39:00,28.0,28.0,29.87,South,180,0.0,0.0,100,0.00,,,-99.99,Weather View 32 v70,2013-11-17 13:39:00,
2013-11-17 08:44:00,28.0,28.0,29.87,South,180,0.0,0.0,100,0.00,,,-99.99,Weather View 32 v70,2013-11-17 13:44:00,
2013-11-17 08:49:00,28.0,28.0,29.87,South,180,0.0,0.0,100,0.00,,,-99.99,Weather View 32 v70,2013-11-17 13:49:00,
2013-11-17 08:54:00,28.0,28.0,29.88,WSW,247,0.0,0.0,100,0.00,,,-99.99,Weather View 32 v70,2013-11-17 13:54:00,
2013-11-17 09:04:00,29.0,29.0,29.88,WSW,247,1.0,2.0,100,0.00,,,-99.99,Weather View 32 v70,2013-11-17 14:04:00,
2013-11-17 09:09:00,29.0,29.0,29.89,West,270,0.0,2.0,100,0.00,,,-99.99,Weather View 32 v70,2013-11-17 14:09:00,
2013-11-17 09:14:00,29.0,29.0,29.89,West,270,0.0,2.0,100,0.00,,,-99.99,Weather View 32 v70,2013-11-17 14:14:00,
2013-11-17 09:19:00,29.0,29.0,29.89,SW,225,0.0,2.0,100,0.00,,,-99.99,Weather View 32 v70,2013-11-17 14:19:00,
2013-11-17 09:24:00,30.0,30.0,29.89,WSW,247,0.0,2.0,100,0.00,,,-99.99,Weather View 32 v70,2013-11-17 14:24:00,
2013-11-17 09:34:00,30.0,30.0,29.89,SW,225,0.0,2.0,100,0.00,,,-99.99,Weather View 32 v70,2013-11-17 14:34:00,
2013-11-17 09:39:00,31.0,31.0,29.89,SW,225,0.0,2.0,100,0.00,,,-99.99,Weather View 32 v70,2013-11-17 14:39:00,
2013-11-17 09:44:00,31.0,31.0,29.89,SW,225,0.0,2.0,100,0.00,,,-99.99,Weather View 32 v70,2013-11-17 14:44:00,
2013-11-17 09:49:00,31.0,31.0,29.89,SW,225,0.0,2.0,100,0.00,,,-99.99,Weather View 32 v70,2013-11-17 14:49:00,
2013-11-17 09:54:00,31.0,31.0,29.88,East,90,0.0,2.0,100,0.00,,,-99.99,Weather View 32 v70,2013-11-17 14:54:00,
2013-11-17 10:04:00,32.0,32.0,29.88,SE,135,0.0,2.0,100,0.00,,,-99.99,Weather View 32 v70,2013-11-17 15:04:00,
2013-11-17 10:09:00,32.0,32.0,29.87,SE,135,0.0,1.0,100,0.00,,,-99.99,Weather View 32 v70,2013-11-17 15:09:00,
2013-11-17 10:14:00,32.0,32.0,29.87,SSE,157,0.0,1.0,100,0.00,,,-99.99,Weather View 32 v70,2013-11-17 15:14:00,
2013-11-17 10:19:00,32.0,32.0,29.87,SW,225,0.0,0.0,100,0.00,,,-99.99,Weather View 32 v70,2013-11-17 15:19:00,
2013-11-17 10:24:00,32.0,32.0,29.88,West,270,0.0,0.0,100,0.00,,,-99.99,Weather View 32 v70,2013-11-17 15:24:00,
2013-11-17 10:34:00,32.0,32.0,29.89,WNW,292,3.0,7.0,100,0.00,,,-99.99,Weather View 32 v70,2013-11-17 15:34:00,
2013-11-17 10:39:00,32.0,32.0,29.89,WSW,247,3.0,7.0,100,0.00,,,-99.99,Weather View 32 v70,2013-11-17 15:39:00,
2013-11-17 10:44:00,33.0,33.0,29.89,WSW,247,0.0,7.0,100,0.00,,,-99.99,Weather View 32 v70,2013-11-17 15:44:00,
2013-11-17 10:49:00,33.0,33.0,29.89,West,270,1.0,7.0,100,0.00,,,-99.99,Weather View 32 v70,2013-11-17 15:49:00,
2013-11-17 10:54:00,33.0,33.0,29.89,West,270,0.0,7.0,100,0.00,,,-99.99,Weather View 32 v70,2013-11-17 15:54:00,
2013-11-17 11:04:00,34.0,34.0,29.89,NW,315,1.0,7.0,100,0.00,,,-99.99,Weather View 32 v70,2013-11-17 16:04:00,
2013-11-17 11:09:00,34.0,34.0,29.89,NW,315,0.0,7.0,100,0.00,,,-99.99,Weather View 32 v70,2013-11-17 16:09:00,
2013-11-17 11:14:00,34.0,34.0,29.89,NW,315,0.0,7.0,100,0.00,,,-99.99,Weather View 32 v70,2013-11-17 16:14:00,
2013-11-17 11:19:00,35.0,35.0,29.88,West,270,0.0,7.0,100,0.00,,,-99.99,Weather View 32 v70,2013-11-17 16:19:00,
2013-11-17 11:24:00,35.0,35.0,29.88,West,270,0.0,7.0,100,0.00,,,-99.99,Weather View 32 v70,2013-11-17 16:24:00,
2013-11-17 11:34:00,36.0,36.0,29.87,South,180,0.0,7.0,100,0.00,,,-99.99,Weather View 32 v70,2013-11-17 16:34:00,
2013-11-17 11:39:00,36.0,36.0,29.86,SE,135,0.0,5.0,100,0.00,,,-99.99,Weather View 32 v70,2013-11-17 16:39:00,
2013-11-17 11:44:00,36.0,36.0,29.86,ESE,112,0.0,5.0,100,0.00,,,-99.99,Weather View 32 v70,2013-11-17 16:44:00,
2013-11-17 11:49:00,36.0,36.0,29.85,ESE,112,0.0,5.0,100,0.00,,,-99.99,Weather View 32 v70,2013-11-17 16:49:00,
2013-11-17 11:59:00,37.0,37.0,29.86,NW,315,0.0,5.0,100,0.00,,,-99.99,Weather View 32 v70,2013-11-17 16:59:00,
2013-11-17 12:04:00,37.0,37.0,29.85,NW,315,0.0,2.0,100,0.00,,,-99.99,Weather View 32 v70,2013-11-17 17:04:00,
2013-11-17 12:09:00,37.0,37.0,29.85,NW,315,0.0,0.0,100,0.00,,,-99.99,Weather View 32 v70,2013-11-17 17:09:00,
2013-11-17 12:14:00,37.0,37.0,29.86,NW,315,0.0,0.0,100,0.00,,,-99.99,Weather View 32 v70,2013-11-17 17:14:00,
2013-11-17 12:19:00,37.0,37.0,29.86,West,270,0.0,0.0,100,0.00,,,-99.99,Weather View 32 v70,2013-11-17 17:19:00,
2013-11-17 12:29:00,37.0,37.0,29.86,West,270,0.0,0.0,100,0.00,,,-99.99,Weather View 32 v70,2013-11-17 17:29:00,
2013-11-17 12:34:00,37.0,37.0,29.86,WNW,292,0.0,0.0,100,0.00,,,-99.99,Weather View 32 v70,2013-11-17 17:34:00,
2013-11-17 12:39:00,37.0,37.0,29.86,West,270,1.0,4.0,100,0.00,,,-99.99,Weather View 32 v70,2013-11-17 17:39:00,
2013-11-17 12:44:00,37.0,37.0,29.86,West,270,0.0,4.0,100,0.00,,,-99.99,Weather View 32 v70,2013-11-17 17:44:00,
2013-11-17 12:49:00,37.0,37.0,29.85,West,270,0.0,4.0,100,0.00,,,-99.99,Weather View 32 v70,2013-11-17 17:49:00,
2013-11-17 12:59:00,38.0,38.0,29.85,WNW,292,0.0,4.0,100,0.00,,,-99.99,Weather View 32 v70,2013-11-17 17:59:00,
2013-11-17 13:04:00,39.0,39.0,29.85,WNW,292,0.0,4.0,100,0.00,,,-99.99,Weather View 32 v70,2013-11-17 18:04:00,
2013-11-17 13:09:00,39.0,39.0,29.84,NE,45,0.0,4.0,100,0.00,,,-99.99,Weather View 32 v70,2013-11-17 18:09:00,
2013-11-17 13:14:00,39.0,39.0,29.84,East,90,0.0,4.0,100,0.00,,,-99.99,Weather View 32 v70,2013-11-17 18:14:00,
2013-11-17 13:19:00,39.0,39.0,29.83,South,180,0.0,4.0,100,0.00,,,-99.99,Weather View 32 v70,2013-11-17 18:19:00,
2013-11-17 13:29:00,40.0,40.0,29.83,South,180,0.0,4.0,100,0.00,,,-99.99,Weather View 32 v70,2013-11-17 18:29:00,
2013-11-17 13:34:00,40.0,40.0,29.83,South,180,0.0,4.0,100,0.00,,,-99.99,Weather View 32 v70,2013-11-17 18:34:00,
2013-11-17 13:39:00,39.0,39.0,29.83,South,180,0.0,4.0,100,0.00,,,-99.99,Weather View 32 v70,2013-11-17 18:39:00,
2013-11-17 13:44:00,40.0,40.0,29.83,SW,225,0.0,2.0,100,0.00,,,-99.99,Weather View 32 v70,2013-11-17 18:44:00,
2013-11-17 13:54:00,40.0,40.0,29.83,SW,225,0.0,2.0,100,0.00,,,-99.99,Weather View 32 v70,2013-11-17 18:54:00,
2013-11-17 13:59:00,39.0,39.0,29.83,West,270,0.0,2.0,100,0.00,,,-99.99,Weather View 32 v70,2013-11-17 18:59:00,
2013-11-17 14:04:00,40.0,40.0,29.83,West,270,0.0,2.0,100,0.00,,,-99.99,Weather View 32 v70,2013-11-17 19:04:00,
2013-11-17 14:09:00,40.0,40.0,29.83,North,360,1.0,3.0,100,0.00,,,-99.99,Weather View 32 v70,2013-11-17 19:09:00,
2013-11-17 14:14:00,39.0,39.0,29.82,NE,45,1.0,3.0,100,0.00,,,-99.99,Weather View 32 v70,2013-11-17 19:14:00,
2013-11-17 14:24:00,40.0,40.0,29.83,NE,45,0.0,3.0,100,0.00,,,-99.99,Weather View 32 v70,2013-11-17 19:24:00,
2013-11-17 14:29:00,40.0,40.0,29.82,SE,135,0.0,3.0,100,0.00,,,-99.99,Weather View 32 v70,2013-11-17 19:29:00,
2013-11-17 14:34:00,40.0,40.0,29.83,ENE,67,0.0,3.0,100,0.00,,,-99.99,Weather View 32 v70,2013-11-17 19:34:00,
2013-11-17 14:39:00,40.0,40.0,29.82,WNW,292,0.0,3.0,100,0.00,,,-99.99,Weather View 32 v70,2013-11-17 19:39:00,
2013-11-17 14:49:00,40.0,40.0,29.83,WNW,292,0.0,3.0,100,0.00,,,-99.99,Weather View 32 v70,2013-11-17 19:49:00,
2013-11-17 14:54:00,40.0,40.0,29.82,East,90,0.0,3.0,100,0.00,,,-99.99,Weather View 32 v70,2013-11-17 19:54:00,
2013-11-17 14:59:00,40.0,40.0,29.82,SE,135,0.0,3.0,100,0.00,,,-99.99,Weather View 32 v70,2013-11-17 19:59:00,
2013-11-17 15:04:00,40.0,40.0,29.82,SE,135,0.0,3.0,100,0.00,,,-99.99,Weather View 32 v70,2013-11-17 20:04:00,
2013-11-17 15:09:00,40.0,40.0,29.82,SE,135,0.0,3.0,100,0.00,,,-99.99,Weather View 32 v70,2013-11-17 20:09:00,
2013-11-17 15:19:00,40.0,40.0,29.81,ESE,112,0.0,1.0,100,0.00,,,-99.99,Weather View 32 v70,2013-11-17 20:19:00,
2013-11-17 15:24:00,40.0,40.0,29.82,ESE,112,0.0,1.0,100,0.00,,,-99.99,Weather View 32 v70,2013-11-17 20:24:00,
2013-11-17 15:29:00,40.0,40.0,29.81,ESE,112,0.0,1.0,100,0.00,,,-99.99,Weather View 32 v70,2013-11-17 20:29:00,
2013-11-17 15:34:00,40.0,40.0,29.82,ESE,112,0.0,1.0,100,0.00,,,-99.99,Weather View 32 v70,2013-11-17 20:34:00,
2013-11-17 15:44:00,39.0,39.0,29.82,ESE,112,0.0,1.0,100,0.00,,,-99.99,Weather View 32 v70,2013-11-17 20:44:00,
2013-11-17 15:49:00,39.0,39.0,29.81,WNW,292,0.0,1.0,100,0.00,,,-99.99,Weather View 32 v70,2013-11-17 20:49:00,
2013-11-17 15:54:00,39.0,39.0,29.81,WNW,292,0.0,1.0,100,0.00,,,-99.99,Weather View 32 v70,2013-11-17 20:54:00,
2013-11-17 15:59:00,39.0,39.0,29.81,NW,315,0.0,2.0,100,0.00,,,-99.99,Weather View 32 v70,2013-11-17 20:59:00,
2013-11-17 16:04:00,39.0,39.0,29.81,NW,315,0.0,2.0,100,0.00,,,-99.99,Weather View 32 v70,2013-11-17 21:04:00,
2013-11-17 16:10:00,39.0,39.0,29.81,NW,315,0.0,2.0,100,0.00,,,-99.99,Weather View 32 v70,2013-11-17 21:10:00,
2013-11-17 16:19:00,39.0,39.0,29.80,NE,45,0.0,2.0,100,0.00,,,-99.99,Weather View 32 v70,2013-11-17 21:19:00,
2013-11-17 16:24:00,39.0,39.0,29.80,NE,45,0.0,2.0,100,0.00,,,-99.99,Weather View 32 v70,2013-11-17 21:24:00,
2013-11-17 16:29:00,39.0,39.0,29.80,NE,45,0.0,2.0,100,0.00,,,-99.99,Weather View 32 v70,2013-11-17 21:29:00,
2013-11-17 16:34:00,39.0,39.0,29.80,NE,45,0.0,2.0,100,0.00,,,-99.99,Weather View 32 v70,2013-11-17 21:34:00,
2013-11-17 16:44:00,39.0,39.0,29.80,NE,45,0.0,2.0,100,0.00,,,-99.99,Weather View 32 v70,2013-11-17 21:44:00,
2013-11-17 16:49:00,39.0,39.0,29.80,NE,45,0.0,2.0,100,0.00,,,-99.99,Weather View 32 v70,2013-11-17 21:49:00,
2013-11-17 16:54:00,39.0,39.0,29.80,NE,45,0.0,2.0,100,0.00,,,-99.99,Weather View 32 v70,2013-11-17 21:54:00,
2013-11-17 16:59:00,39.0,39.0,29.79,NE,45,0.0,2.0,100,0.00,,,-99.99,Weather View 32 v70,2013-11-17 21:59:00,
2013-11-17 17:04:00,39.0,39.0,29.80,NE,45,0.0,0.0,100,0.00,,,-99.99,Weather View 32 v70,2013-11-17 22:04:00,
2013-11-17 17:10:00,39.0,39.0,29.79,NE,45,0.0,0.0,100,0.00,,,-99.99,Weather View 32 v70,2013-11-17 22:10:00,
2013-11-17 17:19:00,39.0,39.0,29.79,NE,45,0.0,0.0,100,0.00,,,-99.99,Weather View 32 v70,2013-11-17 22:19:00,
2013-11-17 17:24:00,38.0,38.0,29.79,NE,45,0.0,0.0,100,0.00,,,-99.99,Weather View 32 v70,2013-11-17 22:24:00,
2013-11-17 17:29:00,38.0,38.0,29.79,NE,45,0.0,0.0,100,0.00,,,-99.99,Weather View 32 v70,2013-11-17 22:29:00,
2013-11-17 17:34:00,38.0,38.0,29.78,NE,45,0.0,0.0,100,0.00,,,-99.99,Weather View 32 v70,2013-11-17 22:34:00,
2013-11-17 17:44:00,38.0,38.0,29.77,ENE,67,0.0,0.0,100,0.00,,,-99.99,Weather View 32 v70,2013-11-17 22:44:00,
2013-11-17 17:49:00,38.0,38.0,29.76,East,90,0.0,0.0,100,0.00,,,-99.99,Weather View 32 v70,2013-11-17 22:49:00,
2013-11-17 17:54:00,38.0,38.0,29.76,East,90,0.0,0.0,100,0.00,,,-99.99,Weather View 32 v70,2013-11-17 22:54:00,
2013-11-17 17:59:00,38.0,38.0,29.76,East,90,0.0,0.0,100,0.00,,,-99.99,Weather View 32 v70,2013-11-17 22:59:00,
2013-11-17 18:09:00,38.0,38.0,29.76,East,90,0.0,0.0,100,0.00,,,-99.99,Weather View 32 v70,2013-11-17 23:09:00,
2013-11-17 18:14:00,38.0,38.0,29.75,East,90,0.0,0.0,100,0.00,,,-99.99,Weather View 32 v70,2013-11-17 23:14:00,
2013-11-17 18:19:00,38.0,38.0,29.75,East,90,0.0,0.0,100,0.00,,,-99.99,Weather View 32 v70,2013-11-17 23:19:00,
2013-11-17 18:24:00,38.0,38.0,29.75,East,90,0.0,0.0,100,0.00,,,-99.99,Weather View 32 v70,2013-11-17 23:24:00,
2013-11-17 18:29:00,38.0,38.0,29.75,East,90,0.0,0.0,100,0.00,,,-99.99,Weather View 32 v70,2013-11-17 23:29:00,
2013-11-17 18:39:00,38.0,38.0,29.74,East,90,0.0,0.0,100,0.00,,,-99.99,Weather View 32 v70,2013-11-17 23:39:00,
2013-11-17 18:44:00,38.0,38.0,29.74,East,90,0.0,0.0,100,0.00,,,-99.99,Weather View 32 v70,2013-11-17 23:44:00,
2013-11-17 18:54:00,38.0,38.0,29.73,East,90,0.0,0.0,100,0.00,,,-99.99,Weather View 32 v70,2013-11-17 23:54:00,
2013-11-17 18:59:00,38.0,38.0,29.73,East,90,0.0,0.0,100,0.00,,,-99.99,Weather View 32 v70,2013-11-17 23:59:00,
2013-11-17 19:04:00,38.0,38.0,29.73,East,90,0.0,2.0,100,0.00,,,-99.99,Weather View 32 v70,2013-11-18 00:04:00,
2013-11-17 19:09:00,38.0,38.0,29.72,ENE,67,0.0,2.0,100,0.00,,,-99.99,Weather View 32 v70,2013-11-18 00:09:00,
2013-11-17 19:14:00,38.0,38.0,29.72,East,90,0.0,2.0,100,0.00,,,-99.99,Weather View 32 v70,2013-11-18 00:14:00,
2013-11-17 19:24:00,38.0,38.0,29.71,East,90,0.0,2.0,100,0.00,,,-99.99,Weather View 32 v70,2013-11-18 00:24:00,
2013-11-17 19:29:00,38.0,38.0,29.71,SE,135,0.0,2.0,100,0.00,,,-99.99,Weather View 32 v70,2013-11-18 00:29:00,
2013-11-17 19:34:00,38.0,38.0,29.71,SSE,157,0.0,2.0,100,0.00,,,-99.99,Weather View 32 v70,2013-11-18 00:34:00,
2013-11-17 19:39:00,38.0,38.0,29.70,SSE,157,0.0,2.0,100,0.00,,,-99.99,Weather View 32 v70,2013-11-18 00:39:00,
2013-11-17 19:44:00,38.0,38.0,29.70,ENE,67,0.0,2.0,100,0.00,,,-99.99,Weather View 32 v70,2013-11-18 00:44:00,
2013-11-17 19:54:00,39.0,39.0,29.70,East,90,0.0,3.0,100,0.00,,,-99.99,Weather View 32 v70,2013-11-18 00:54:00,
2013-11-17 19:59:00,39.0,39.0,29.70,SE,135,0.0,3.0,100,0.00,,,-99.99,Weather View 32 v70,2013-11-18 00:59:00,
2013-11-17 20:04:00,39.0,39.0,29.69,East,90,0.0,3.0,100,0.00,,,-99.99,Weather View 32 v70,2013-11-18 01:04:00,
2013-11-17 20:09:00,39.0,39.0,29.69,East,90,0.0,3.0,100,0.00,,,-99.99,Weather View 32 v70,2013-11-18 01:09:00,
2013-11-17 20:19:00,39.0,39.0,29.69,East,90,0.0,3.0,100,0.00,,,-99.99,Weather View 32 v70,2013-11-18 01:19:00,
2013-11-17 20:24:00,39.0,39.0,29.69,East,90,0.0,3.0,100,0.00,,,-99.99,Weather View 32 v70,2013-11-18 01:24:00,
2013-11-17 20:29:00,40.0,40.0,29.69,East,90,2.0,5.0,100,0.00,,,-99.99,Weather View 32 v70,2013-11-18 01:29:00,
2013-11-17 20:34:00,40.0,40.0,29.68,East,90,0.0,5.0,100,0.00,,,-99.99,Weather View 32 v70,2013-11-18 01:34:00,
2013-11-17 20:39:00,40.0,40.0,29.68,East,90,2.0,5.0,100,0.00,,,-99.99,Weather View 32 v70,2013-11-18 01:39:00,
2013-11-17 20:49:00,40.0,40.0,29.67,East,90,5.0,6.0,100,0.00,,,-99.99,Weather View 32 v70,2013-11-18 01:49:00,
2013-11-17 20:54:00,41.0,41.0,29.66,ENE,67,5.0,8.0,100,0.00,,,-99.99,Weather View 32 v70,2013-11-18 01:54:00,
2013-11-17 20:59:00,41.0,41.0,29.66,East,90,0.0,8.0,100,0.00,,,-99.99,Weather View 32 v70,2013-11-18 01:59:00,
2013-11-17 21:09:00,41.0,41.0,29.67,ESE,112,1.0,8.0,100,0.00,,,-99.99,Weather View 32 v70,2013-11-18 02:09:00,
2013-11-17 21:14:00,41.0,41.0,29.66,ESE,112,3.0,8.0,100,0.00,,,-99.99,Weather View 32 v70,2013-11-18 02:14:00,
2013-11-17 21:19:00,41.0,41.0,29.66,SE,135,0.0,8.0,100,0.00,,,-99.99,Weather View 32 v70,2013-11-18 02:19:00,
2013-11-17 21:24:00,41.0,41.0,29.66,East,90,1.0,8.0,100,0.00,,,-99.99,Weather View 32 v70,2013-11-18 02:24:00,
2013-11-17 21:34:00,41.0,41.0,29.66,East,90,0.0,8.0,100,0.00,,,-99.99,Weather View 32 v70,2013-11-18 02:34:00,
2013-11-17 21:39:00,41.0,41.0,29.66,East,90,1.0,8.0,100,0.00,,,-99.99,Weather View 32 v70,2013-11-18 02:39:00,
2013-11-17 21:44:00,42.0,42.0,29.65,East,90,0.0,8.0,100,0.00,,,-99.99,Weather View 32 v70,2013-11-18 02:44:00,
2013-11-17 21:54:00,42.0,42.0,29.65,East,90,0.0,8.0,100,0.00,,,-99.99,Weather View 32 v70,2013-11-18 02:54:00,
2013-11-17 21:59:00,42.0,42.0,29.64,East,90,2.0,5.0,100,0.00,,,-99.99,Weather View 32 v70,2013-11-18 02:59:00,
2013-11-17 22:04:00,42.0,42.0,29.64,East,90,1.0,5.0,100,0.00,,,-99.99,Weather View 32 v70,2013-11-18 03:04:00,
2013-11-17 22:09:00,42.0,42.0,29.64,ESE,112,2.0,7.0,100,0.00,,,-99.99,Weather View 32 v70,2013-11-18 03:09:00,
2013-11-17 22:14:00,42.0,42.0,29.64,East,90,3.0,7.0,100,0.00,,,-99.99,Weather View 32 v70,2013-11-18 03:14:00,
2013-11-17 22:24:00,42.0,42.0,29.63,East,90,2.0,7.0,100,0.00,,,-99.99,Weather View 32 v70,2013-11-18 03:24:00,
2013-11-17 22:29:00,42.0,42.0,29.63,East,90,2.0,7.0,100,0.00,,,-99.99,Weather View 32 v70,2013-11-18 03:29:00,
2013-11-17 22:34:00,42.0,42.0,29.63,SE,135,1.0,8.0,100,0.00,,,-99.99,Weather View 32 v70,2013-11-18 03:34:00,
2013-11-17 22:39:00,42.0,42.0,29.62,East,90,2.0,9.0,100,0.00,,,-99.99,Weather View 32 v70,2013-11-18 03:39:00,
2013-11-17 22:44:00,42.0,42.0,29.62,East,90,4.0,9.0,100,0.00,,,-99.99,Weather View 32 v70,2013-11-18 03:44:00,
2013-11-17 22:54:00,43.0,43.0,29.61,East,90,1.0,9.0,100,0.00,,,-99.99,Weather View 32 v70,2013-11-18 03:54:00,
2013-11-17 22:59:00,43.0,43.0,29.61,East,90,0.0,9.0,100,0.00,,,-99.99,Weather View 32 v70,2013-11-18 03:59:00,
2013-11-17 23:04:00,43.0,43.0,29.61,East,90,6.0,9.0,100,0.00,,,-99.99,Weather View 32 v70,2013-11-18 04:04:00,
2013-11-17 23:09:00,43.0,43.0,29.60,ENE,67,7.0,10.0,100,0.00,,,-99.99,Weather View 32 v70,2013-11-18 04:09:00,
2013-11-17 23:14:00,43.0,43.0,29.60,East,90,9.0,10.0,100,0.01,,,-99.99,Weather View 32 v70,2013-11-18 04:14:00,
2013-11-17 23:24:00,43.0,43.0,29.59,ESE,112,2.0,10.0,100,0.01,,,-99.99,Weather View 32 v70,2013-11-18 04:24:00,
2013-11-17 23:29:00,43.0,43.0,29.58,East,90,3.0,10.0,100,0.03,,,-99.99,Weather View 32 v70,2013-11-18 04:29:00,
2013-11-17 23:34:00,43.0,43.0,29.58,East,90,2.0,10.0,100,0.03,,,-99.99,Weather View 32 v70,2013-11-18 04:34:00,
2013-11-17 23:39:00,43.0,43.0,29.57,East,90,2.0,10.0,100,0.04,,,-99.99,Weather View 32 v70,2013-11-18 04:39:00,
2013-11-17 23:44:00,43.0,43.0,29.57,East,90,6.0,10.0,100,0.05,,,-99.99,Weather View 32 v70,2013-11-18 04:44:00,
2013-11-17 23:54:00,43.0,43.0,29.56,East,90,1.0,10.0,100,0.05,,,-99.99,Weather View 32 v70,2013-11-18 04:54:00,
2013-11-17 23:59:00,43.0,43.0,29.56,ESE,112,1.0,10.0,100,0.05,,,-99.99,Weather View 32 v70,2013-11-18 04:59:00,